• In Hungary
  • List of Countries
  • For 7 days
  • Water Temperature
  • Satellite Maps
  • Weather Map
  • News
  • Weather Widgets
  • user-avatar
    Login

    Hourly Weather Szkody

    Today, 14 December, Thursday

    Time Temperature Precipitation Wind Pressure Humidity
    00:00 -4°C° 0 mm 5 mps 740 mmHg 82%
    01:00 -4°C° 0 mm 6 mps 739 mmHg 79%
    02:00 -4°C° 0 mm 6 mps 738 mmHg 78%
    03:00 -4°C° 0 mm 6 mps 737 mmHg 77%
    04:00 -3°C° 0 mm 7 mps 736 mmHg 76%
    05:00 -3°C° 0 mm 7 mps 736 mmHg 75%
    06:00 -3°C° 0 mm 7 mps 735 mmHg 74%
    07:00 -4°C° 0 mm 8 mps 733 mmHg 73%
    08:00 -4°C° 0.1 mm 8 mps 733 mmHg 72%
    09:00 -2°C° 0.1 mm 8 mps 732 mmHg 71%
    10:00 -2°C° 0.1 mm 8 mps 732 mmHg 70%
    11:00 -2°C° 0.2 mm 8 mps 732 mmHg 71%
    12:00 -1°C° 0.2 mm 7 mps 731 mmHg 72%
    13:00 -1°C° 0 mm 6 mps 731 mmHg 74%
    14:00 0°C° 0.2 mm 5 mps 731 mmHg 76%
    15:00 0°C° 0.2 mm 5 mps 731 mmHg 78%
    16:00 0°C° 0.2 mm 5 mps 730 mmHg 80%
    17:00 0°C° 0.8 mm 5 mps 730 mmHg 82%
    18:00 0°C° 0.8 mm 5 mps 730 mmHg 84%
    19:00 0°C° 0.8 mm 5 mps 730 mmHg 86%
    20:00 0°C° 0.4 mm 5 mps 731 mmHg 87%
    21:00 -2°C° 0.4 mm 6 mps 731 mmHg 88%
    22:00 -2°C° 0.4 mm 6 mps 731 mmHg 90%
    23:00 -1°C° 0 mm 5 mps 732 mmHg 89%

    Tomorrow, 15 December, Friday

    Time Temperature Precipitation Wind Pressure Humidity
    00:00 -1°C° 0 mm 5 mps 732 mmHg 89%
    01:00 -1°C° 0 mm 5 mps 732 mmHg 88%
    02:00 -1°C° 0.1 mm 5 mps 733 mmHg 87%
    03:00 -1°C° 0.1 mm 5 mps 733 mmHg 86%
    04:00 -2°C° 0.1 mm 6 mps 733 mmHg 84%
    05:00 -2°C° 0.1 mm 5 mps 733 mmHg 85%
    06:00 -2°C° 0.1 mm 5 mps 733 mmHg 86%
    07:00 -2°C° 0.1 mm 5 mps 733 mmHg 86%
    08:00 -2°C° 0 mm 5 mps 734 mmHg 86%
    09:00 -2°C° 0 mm 4 mps 734 mmHg 87%
    10:00 -2°C° 0 mm 4 mps 735 mmHg 87%
    11:00 -1°C° 0 mm 3 mps 734 mmHg 88%
    12:00 0°C° 0 mm 3 mps 734 mmHg 88%
    13:00 0°C° 0 mm 3 mps 734 mmHg 89%
    14:00 -1°C° 0 mm 3 mps 734 mmHg 90%
    15:00 -1°C° 0 mm 3 mps 734 mmHg 91%
    16:00 -1°C° 0 mm 3 mps 734 mmHg 92%
    17:00 -1°C° 0.3 mm 2 mps 733 mmHg 93%
    18:00 -1°C° 0.3 mm 2 mps 733 mmHg 93%
    19:00 -1°C° 0.3 mm 2 mps 733 mmHg 94%
    20:00 -1°C° 0.7 mm 2 mps 733 mmHg 94%
    21:00 -1°C° 0.7 mm 2 mps 733 mmHg 95%
    22:00 -1°C° 0.7 mm 2 mps 732 mmHg 95%
    23:00 -1°C° 0.3 mm 2 mps 733 mmHg 96%

    Day after tomorrow, 16 December, Saturday

    Time Temperature Precipitation Wind Pressure Humidity
    00:00 -1°C° 0.3 mm 2 mps 733 mmHg 96%
    01:00 -1°C° 0.3 mm 2 mps 734 mmHg 96%
    02:00 -1°C° 0.1 mm 3 mps 734 mmHg 96%
    03:00 -1°C° 0.1 mm 3 mps 734 mmHg 96%
    04:00 -2°C° 0.1 mm 4 mps 735 mmHg 95%
    05:00 -1°C° 0 mm 3 mps 735 mmHg 95%
    06:00 -2°C° 0 mm 3 mps 735 mmHg 96%
    07:00 -2°C° 0 mm 2 mps 735 mmHg 96%
    08:00 -2°C° 0 mm 2 mps 736 mmHg 95%
    09:00 -2°C° 0 mm 3 mps 736 mmHg 95%
    10:00 -2°C° 0 mm 3 mps 737 mmHg 95%
    11:00 -2°C° 0 mm 3 mps 737 mmHg 94%
    12:00 -2°C° 0 mm 3 mps 737 mmHg 94%
    13:00 -1°C° 0 mm 3 mps 737 mmHg 94%
    14:00 -1°C° 0 mm 3 mps 737 mmHg 93%
    15:00 -2°C° 0 mm 3 mps 738 mmHg 93%
    16:00 -2°C° 0 mm 3 mps 738 mmHg 93%
    17:00 -2°C° 0 mm 3 mps 739 mmHg 92%
    18:00 -2°C° 0 mm 3 mps 739 mmHg 91%
    19:00 -3°C° 0 mm 4 mps 739 mmHg 91%
    20:00 -1°C° 0 mm 3 mps 740 mmHg 91%
    21:00 -1°C° 0 mm 3 mps 740 mmHg 92%
    22:00 -1°C° 0 mm 3 mps 741 mmHg 92%
    23:00 -2°C° 0 mm 3 mps 741 mmHg 92%

    17 December, Sunday

    Time Temperature Precipitation Wind Pressure Humidity
    00:00 -2°C° 0 mm 3 mps 741 mmHg 91%
    01:00 -2°C° 0 mm 3 mps 742 mmHg 90%
    02:00 -2°C° 0 mm 3 mps 742 mmHg 90%
    03:00 -2°C° 0 mm 3 mps 742 mmHg 90%
    04:00 -2°C° 0 mm 3 mps 742 mmHg 90%
    05:00 -4°C° 0 mm 3 mps 743 mmHg 91%
    06:00 -4°C° 0 mm 3 mps 743 mmHg 93%
    07:00 -4°C° 0 mm 3 mps 743 mmHg 94%
    08:00 -4°C° 0 mm 3 mps 744 mmHg 92%
    09:00 -2°C° 0 mm 3 mps 744 mmHg 91%
    10:00 -2°C° 0 mm 3 mps 744 mmHg 90%
    11:00 -1°C° 0 mm 3 mps 744 mmHg 88%
    12:00 -1°C° 0 mm 3 mps 745 mmHg 87%
    13:00 -1°C° 0 mm 3 mps 745 mmHg 86%
    14:00 -1°C° 0 mm 2 mps 745 mmHg 88%
    15:00 -2°C° 0 mm 2 mps 745 mmHg 89%
    16:00 -2°C° 0 mm 2 mps 745 mmHg 91%
    17:00 -2°C° 0.1 mm 2 mps 745 mmHg 92%
    18:00 -2°C° 0.1 mm 2 mps 746 mmHg 94%
    19:00 0°C° 0.1 mm 1 mps 746 mmHg 95%
    20:00 0°C° 0 mm 1 mps 746 mmHg 95%
    21:00 0°C° 0 mm 1 mps 746 mmHg 95%
    22:00 0°C° 0 mm 1 mps 747 mmHg 95%
    23:00 -1°C° 0 mm 1 mps 747 mmHg 95%

    18 December, Monday

    Time Temperature Precipitation Wind Pressure Humidity
    00:00 -1°C° 0 mm 1 mps 747 mmHg 95%
    01:00 -2°C° 0 mm 1 mps 747 mmHg 95%
    02:00 -2°C° 0 mm 1 mps 747 mmHg 95%
    03:00 -2°C° 0 mm 1 mps 747 mmHg 95%
    04:00 -2°C° 0 mm 1 mps 747 mmHg 95%
    05:00 -2°C° 0 mm 1 mps 747 mmHg 95%
    06:00 -2°C° 0 mm 1 mps 747 mmHg 95%
    07:00 -2°C° 0 mm 1 mps 747 mmHg 95%
    08:00 -2°C° 0 mm 1 mps 748 mmHg 94%
    09:00 -1°C° 0 mm 1 mps 748 mmHg 94%
    10:00 -1°C° 0 mm 1 mps 748 mmHg 93%
    11:00 -1°C° 0 mm 1 mps 748 mmHg 92%
    12:00 0°C° 0 mm 1 mps 748 mmHg 92%
    13:00 0°C° 0 mm 1 mps 749 mmHg 91%
    14:00 0°C° 0 mm 1 mps 749 mmHg 92%
    15:00 -1°C° 0 mm 1 mps 749 mmHg 93%
    16:00 -1°C° 0 mm 1 mps 750 mmHg 94%
    17:00 -1°C° 0 mm 1 mps 750 mmHg 94%
    18:00 -1°C° 0 mm 1 mps 751 mmHg 94%
    19:00 -4°C° 0 mm 2 mps 751 mmHg 94%
    20:00 -4°C° 0 mm 2 mps 752 mmHg 94%
    21:00 -4°C° 0 mm 2 mps 752 mmHg 93%
    22:00 -4°C° 0 mm 2 mps 752 mmHg 93%
    23:00 -5°C° 0 mm 2 mps 753 mmHg 93%

    19 December, Tuesday

    Time Temperature Precipitation Wind Pressure Humidity
    00:00 -5°C° 0 mm 2 mps 753 mmHg 93%
    01:00 -5°C° 0 mm 2 mps 753 mmHg 92%
    02:00 -5°C° 0 mm 2 mps 754 mmHg 92%
    03:00 -5°C° 0 mm 2 mps 754 mmHg 92%
    04:00 -5°C° 0 mm 2 mps 754 mmHg 92%
    05:00 -5°C° 0 mm 2 mps 755 mmHg 92%
    06:00 -5°C° 0 mm 2 mps 755 mmHg 92%
    07:00 -5°C° 0 mm 2 mps 755 mmHg 92%
    08:00 -4°C° 0 mm 2 mps 756 mmHg 92%
    09:00 -4°C° 0 mm 2 mps 756 mmHg 92%
    10:00 -3°C° 0 mm 2 mps 757 mmHg 92%
    11:00 -3°C° 0 mm 2 mps 757 mmHg 91%
    12:00 -2°C° 0 mm 2 mps 757 mmHg 91%
    13:00 -2°C° 0 mm 2 mps 757 mmHg 90%
    14:00 -2°C° 0 mm 2 mps 757 mmHg 90%
    15:00 -3°C° 0 mm 2 mps 757 mmHg 91%
    16:00 -3°C° 0 mm 2 mps 757 mmHg 91%
    17:00 -3°C° 0 mm 2 mps 757 mmHg 92%
    18:00 -3°C° 0 mm 2 mps 758 mmHg 92%
    19:00 -3°C° 0 mm 2 mps 758 mmHg 93%
    20:00 -4°C° 0.1 mm 3 mps 758 mmHg 93%
    21:00 -4°C° 0.1 mm 3 mps 758 mmHg 94%
    22:00 -2°C° 0.1 mm 3 mps 758 mmHg 95%
    23:00 -2°C° 0.1 mm 3 mps 758 mmHg 95%
    Show more